Orangeburg, SC

3:17 PM EST on January 24, 2017 (GMT -0500)
Orangeburg Municipal

Weather History for KOGB - July, 2013

Change the Weather History Date:

Tuesday, July 9, 2013

  Actual Average Record
Temperature  
Mean Temperature 82 °F 82 °F  
Max Temperature 89 °F 93 °F 104 °F (1977)
Min Temperature 74 °F 71 °F 54 °F (1983)
Degree Days  
Heating Degree Days 0 0  
Month to date heating degree days 0 0  
Since 1 June heating degree days 0 1  
Since 1 July heating degree days 0 0  
Cooling Degree Days 17 17  
Month to date cooling degree days 135 146  
Year to date cooling degree days 821 847  
Since 1 June cooling degree days 559 544  
Growing Degree Days 30 (Base 50)    
Moisture  
Dew Point 73 °F    
Average Humidity 82    
Maximum Humidity 93    
Minimum Humidity 59    
Precipitation  
Precipitation T in 0.19 in 2.70 in (1959)
Month to date precipitation 5.38 1.68  
Year to date precipitation 29.65 24.42  
Sea Level Pressure  
Sea Level Pressure 30.15 in    
Wind  
Wind Speed 4 mph (SSW)    
Max Wind Speed 13 mph    
Max Gust Speed 14 mph    
Visibility 10 miles    
Events Rain    
T = Trace of Precipitation, MM = Missing Value Source: NWS Daily Summary

Daily Weather History Graph

Daily Weather History Graph

Search for Another Location

Airport or City:

Trip Planner

Search our weather history database for the weather conditions in past years. The results will help you decide how hot, cold, wet, or windy it might be!

Date:

Astronomy

Jul. 09, 2013 Rise Set
Actual Time 6:21 AM EDT 8:35 PM EDT
Civil Twilight 5:52 AM EDT 9:04 PM EDT
Nautical Twilight 5:17 AM EDT 9:39 PM EDT
Astronomical Twilight 4:39 AM EDT 10:17 PM EDT
Moon 7:37 AM EDT (7/9) 9:20 PM EDT (7/9)
Length of Visible Light 15h 11m
Length of Day
14h 14m
New Moon, 2% of the Moon is Illuminated
Jul 9
New Moon
Jul 15
First Quarter
Jul 22
Full
Jul 29
Last Quarter
Aug 6
New

Hourly Weather History & Observations

Time (EDT) Temp. Heat Index Dew Point Humidity Pressure Visibility Wind Dir Wind Speed Gust Speed Precip Events Conditions
12:53 AM 75.9 °F - 72.0 °F 87% 30.18 in 10.0 mi SSW 3.5 mph - N/A   Clear
1:53 AM 75.0 °F - 72.0 °F 90% 30.18 in 10.0 mi SSW 3.5 mph - N/A   Scattered Clouds
2:53 AM 75.0 °F - 72.0 °F 90% 30.17 in 10.0 mi SW 4.6 mph - N/A   Clear
3:53 AM 73.9 °F - 72.0 °F 93% 30.17 in 10.0 mi SSW 5.8 mph - N/A   Partly Cloudy
4:53 AM 73.9 °F - 71.1 °F 91% 30.16 in 10.0 mi SSW 3.5 mph - N/A   Clear
5:53 AM 73.9 °F - 72.0 °F 93% 30.16 in 10.0 mi Calm Calm - N/A   Overcast
6:53 AM 75.0 °F - 72.0 °F 90% 30.17 in 10.0 mi Calm Calm - N/A   Overcast
7:02 AM 73.4 °F - 71.6 °F 94% 30.18 in 10.0 mi Calm Calm - N/A   Mostly Cloudy
7:22 AM 75.2 °F - 71.6 °F 89% 30.18 in 10.0 mi Calm Calm - N/A   Partly Cloudy
7:53 AM 75.9 °F - 72.0 °F 87% 30.18 in 10.0 mi SW 3.5 mph - N/A   Clear
8:53 AM 79.0 °F - 73.0 °F 82% 30.18 in 10.0 mi SW 6.9 mph - N/A   Clear
9:53 AM 81.0 °F 85.8 °F 73.0 °F 77% 30.19 in 10.0 mi SW 3.5 mph - N/A   Clear
10:53 AM 82.9 °F 88.8 °F 73.0 °F 72% 30.19 in 10.0 mi Calm Calm - N/A   Partly Cloudy
11:53 AM 86.0 °F 93.0 °F 73.0 °F 65% 30.18 in 10.0 mi SSW 3.5 mph - N/A   Partly Cloudy
12:53 PM 87.1 °F 93.6 °F 72.0 °F 61% 30.17 in 10.0 mi SW 6.9 mph - N/A   Partly Cloudy
1:53 PM 87.1 °F 94.5 °F 73.0 °F 63% 30.14 in 10.0 mi SSW 6.9 mph - N/A   Mostly Cloudy
2:53 PM 88.0 °F 96.5 °F 73.9 °F 63% 30.12 in 10.0 mi SW 10.4 mph - N/A   Mostly Cloudy
3:53 PM 84.9 °F 92.1 °F 73.9 °F 69% 30.12 in 10.0 mi ESE 3.5 mph - N/A   Partly Cloudy
4:53 PM 82.9 °F 90.8 °F 75.9 °F 79% 30.10 in 10.0 mi Calm Calm - N/A   Clear
5:53 PM 82.9 °F 91.8 °F 77.0 °F 82% 30.10 in 10.0 mi SSW 8.1 mph - 0.00 in Rain Light Rain
6:53 PM 81.0 °F 87.9 °F 77.0 °F 88% 30.10 in 10.0 mi West 5.8 mph - 0.00 in   Clear
7:53 PM 80.1 °F 85.1 °F 75.0 °F 85% 30.09 in 10.0 mi South 3.5 mph - N/A   Partly Cloudy
8:53 PM 80.1 °F 84.2 °F 73.0 °F 79% 30.12 in 10.0 mi Calm Calm - N/A   Partly Cloudy
9:53 PM 79.0 °F - 73.9 °F 84% 30.12 in 10.0 mi South 4.6 mph - 0.00 in   Clear
10:53 PM 77.0 °F - 72.0 °F 84% 30.13 in 10.0 mi SSW 6.9 mph - N/A   Clear
11:53 PM 77.0 °F - 72.0 °F 84% 30.14 in 10.0 mi SSW 3.5 mph - N/A   Clear